Wetterdaten: Sonntag, 03.06.2012
Datum Zeit Temp. a Sch. Temp. a Son. Temp. a Bod. Feuchte a. Luftdruck Regen Wind Richtung Richtung Sonnenschein Helligkeit Taupunkt Windchill
03.06.2012 00:02 9,5 C 10,6 C 10,6 C 54 % 1014 hPa 0,0 l/m 0,0 m/s (0 Bft) S-SO 160 0 min 0 lux 0,7 C 9,5 C
03.06.2012 00:07 9,4 C 10,5 C 11,4 C 54 % 1014 hPa 0,0 l/m 0,0 m/s (0 Bft) S-SO 155 0 min 0 lux 0,6 C 9,4 C
03.06.2012 00:12 9,3 C 10,5 C 11,3 C 54 % 1014 hPa 0,0 l/m 0,0 m/s (0 Bft) S-SO 155 0 min 0 lux 0,5 C 9,3 C
03.06.2012 00:17 9,2 C 10,4 C 11,6 C 55 % 1014 hPa 0,0 l/m 0,0 m/s (0 Bft) S-SO 155 0 min 0 lux 0,6 C 9,2 C
03.06.2012 00:22 9,1 C 10,3 C 11,5 C 55 % 1014 hPa 0,0 l/m 0,0 m/s (0 Bft) S-SO 160 0 min 0 lux 0,5 C 9,1 C
03.06.2012 00:27 9,2 C 10,2 C 10,6 C 55 % 1014 hPa 0,0 l/m 0,0 m/s (0 Bft) S-SO 160 0 min 0 lux 0,6 C 9,2 C
03.06.2012 00:32 9,2 C 10,2 C 10,6 C 55 % 1014 hPa 0,0 l/m 0,0 m/s (0 Bft) S-SO22.5 160 0 min 0 lux 0,6 C 9,2 C
03.06.2012 00:37 9,1 C 10,2 C 10,4 C 55 % 1013 hPa 0,0 l/m 0,0 m/s (0 Bft) S-SO 160 0 min 0 lux 0,5 C 9,1 C
03.06.2012 00:42 9,1 C 10,1 C 10,8 C 55 % 1013 hPa 0,0 l/m 0,0 m/s (0 Bft) S-SO 155 0 min 0 lux 0,5 C 9,1 C
03.06.2012 00:47 9,1 C 10,0 C 10,4 C 56 % 1013 hPa 0,0 l/m 0,0 m/s (0 Bft) S-SO 160 0 min 0 lux 0,8 C 9,1 C
03.06.2012 00:52 9,0 C 10,0 C 11,1 C 56 % 1013 hPa 0,0 l/m 0,0 m/s (0 Bft) S-SO 155 0 min 0 lux 0,7 C 9,0 C
03.06.2012 00:57 8,9 C 9,8 C 11,1 C 57 % 1013 hPa 0,0 l/m 0,0 m/s (0 Bft) S-SO 160 0 min 0 lux 0,9 C 8,9 C
03.06.2012 01:02 8,8 C 9,8 C 10,7 C 57 % 1013 hPa 0,0 l/m 0,0 m/s (0 Bft) S-SO 155 0 min 0 lux 0,8 C 8,8 C
03.06.2012 01:07 8,8 C 9,7 C 10,9 C 57 % 1013 hPa 0,0 l/m 0,0 m/s (0 Bft) S-SO 160 0 min 0 lux 0,8 C 8,8 C
03.06.2012 01:12 8,7 C 9,6 C 10,8 C 57 % 1013 hPa 0,0 l/m 0,0 m/s (0 Bft) S-SO 160 0 min 0 lux 0,7 C 8,7 C
03.06.2012 01:17 8,5 C 9,6 C 10,0 C 57 % 1013 hPa 0,0 l/m 0,0 m/s (0 Bft) S-SO 155 0 min 0 lux 0,5 C 8,5 C
03.06.2012 01:22 8,4 C 9,5 C 9,3 C 57 % 1013 hPa 0,0 l/m 0,0 m/s (0 Bft) S-SO 160 0 min 0 lux 0,4 C 8,4 C
03.06.2012 01:27 8,4 C 9,3 C 9,2 C 57 % 1013 hPa 0,0 l/m 0,0 m/s (0 Bft) S-SO22.5 160 0 min 0 lux 0,4 C 8,4 C
03.06.2012 01:32 8,2 C 9,2 C 9,8 C 58 % 1013 hPa 0,0 l/m 0,0 m/s (0 Bft) S-SO 160 0 min 0 lux 0,4 C 8,2 C
03.06.2012 01:37 8,2 C 9,2 C 9,9 C 58 % 1013 hPa 0,0 l/m 0,0 m/s (0 Bft) S-SO 155 0 min 0 lux 0,4 C 8,2 C
03.06.2012 01:42 8,1 C 9,2 C 9,7 C 58 % 1013 hPa 0,0 l/m 0,0 m/s (0 Bft) S-SO 155 0 min 0 lux 0,3 C 8,1 C
03.06.2012 01:47 8,0 C 9,0 C 9,3 C 58 % 1013 hPa 0,0 l/m 0,0 m/s (0 Bft) S-SO 155 0 min 0 lux 0,3 C 8,0 C
03.06.2012 01:52 7,9 C 9,0 C 10,0 C 59 % 1013 hPa 0,0 l/m 0,0 m/s (0 Bft) S-SO 155 0 min 0 lux 0,4 C 7,9 C
03.06.2012 01:57 7,9 C 8,9 C 9,1 C 59 % 1013 hPa 0,0 l/m 0,0 m/s (0 Bft) S-SO 155 0 min 0 lux 0,4 C 7,9 C
03.06.2012 02:02 7,8 C 8,9 C 8,8 C 59 % 1013 hPa 0,0 l/m 0,0 m/s (0 Bft) S-SO 155 0 min 0 lux 0,3 C 7,8 C
03.06.2012 02:07 7,7 C 8,8 C 8,8 C 59 % 1012 hPa 0,0 l/m 0,0 m/s (0 Bft) S-SO 155 0 min 0 lux 0,2 C 7,7 C
03.06.2012 02:12 7,7 C 8,7 C 9,0 C 59 % 1012 hPa 0,0 l/m 0,0 m/s (0 Bft) S-SO 155 0 min 0 lux 0,2 C 7,7 C
03.06.2012 02:17 7,7 C 8,7 C 9,0 C 60 % 1012 hPa 0,0 l/m 0,0 m/s (0 Bft) S-SO 155 0 min 0 lux 0,4 C 7,7 C
03.06.2012 02:22 7,6 C 8,6 C 9,5 C 61 % 1012 hPa 0,0 l/m 0,0 m/s (0 Bft) S-SO 155 0 min 0 lux 0,6 C 7,6 C
03.06.2012 02:27 7,6 C 8,6 C 9,7 C 61 % 1012 hPa 0,0 l/m 0,0 m/s (0 Bft) S22.5 170 0 min 0 lux 0,6 C 7,6 C
03.06.2012 02:32 7,6 C 8,6 C 9,5 C 61 % 1012 hPa 0,0 l/m 0,0 m/s (0 Bft) S-SO 160 0 min 0 lux 0,6 C 7,6 C
03.06.2012 02:37 7,6 C 8,5 C 9,8 C 61 % 1012 hPa 0,0 l/m 0,0 m/s (0 Bft) S-SO 160 0 min 0 lux 0,6 C 7,6 C
03.06.2012 02:42 7,5 C 8,5 C 9,0 C 61 % 1012 hPa 0,0 l/m 0,0 m/s (0 Bft) S-SO 160 0 min 0 lux 0,5 C 7,5 C
03.06.2012 02:47 7,5 C 8,5 C 8,9 C 61 % 1012 hPa 0,0 l/m 0,0 m/s (0 Bft) S-SO 160 0 min 0 lux 0,5 C 7,5 C
03.06.2012 02:52 7,4 C 8,4 C 8,5 C 61 % 1012 hPa 0,0 l/m 0,0 m/s (0 Bft) S-SO 160 0 min 0 lux 0,4 C 7,4 C
03.06.2012 02:56 7,3 C 8,3 C 8,8 C 61 % 1012 hPa 0,0 l/m 0,0 m/s (0 Bft) S-SO 160 0 min 0 lux 0,3 C 7,3 C
03.06.2012 03:01 7,2 C 8,2 C 8,7 C 62 % 1012 hPa 0,0 l/m 0,0 m/s (0 Bft) S22.5 170 0 min 0 lux 0,4 C 7,2 C
03.06.2012 03:06 7,1 C 8,2 C 8,2 C 62 % 1012 hPa 0,0 l/m 0,0 m/s (0 Bft) S-SO 160 0 min 0 lux 0,3 C 7,1 C
03.06.2012 03:11 7,1 C 8,2 C 8,6 C 63 % 1012 hPa 0,0 l/m 0,0 m/s (0 Bft) S-SO 160 0 min 0 lux 0,5 C 7,1 C
03.06.2012 03:16 7,1 C 8,1 C 8,9 C 63 % 1012 hPa 0,0 l/m 0,0 m/s (0 Bft) S-SO 160 0 min 0 lux 0,5 C 7,1 C
03.06.2012 03:21 7,2 C 8,2 C 9,4 C 63 % 1011 hPa 0,0 l/m 0,0 m/s (0 Bft) S-SO 160 0 min 0 lux 0,6 C 7,2 C
03.06.2012 03:26 7,3 C 8,2 C 9,3 C 63 % 1011 hPa 0,0 l/m 0,0 m/s (0 Bft) S-SO 160 0 min 0 lux 0,7 C 7,3 C
03.06.2012 03:31 7,4 C 8,3 C 9,4 C 63 % 1011 hPa 0,0 l/m 0,0 m/s (0 Bft) S-SO 165 0 min 0 lux 0,8 C 7,4 C
03.06.2012 03:36 7,6 C 8,4 C 9,6 C 63 % 1011 hPa 0,0 l/m 0,0 m/s (0 Bft) S-SO 160 0 min 0 lux 1,0 C 7,6 C
03.06.2012 03:41 7,7 C 8,5 C 9,9 C 63 % 1011 hPa 0,0 l/m 0,0 m/s (0 Bft) S-SO 160 0 min 0 lux 1,1 C 7,7 C
03.06.2012 03:46 7,9 C 8,5 C 10,1 C 63 % 1011 hPa 0,0 l/m 0,0 m/s (0 Bft) S-SO 160 0 min 0 lux 1,3 C 7,9 C
03.06.2012 03:51 7,8 C 8,6 C 9,6 C 63 % 1011 hPa 0,0 l/m 0,0 m/s (0 Bft) S-SO 160 0 min 0 lux 1,2 C 7,8 C
03.06.2012 03:56 7,8 C 8,6 C 9,7 C 63 % 1011 hPa 0,0 l/m 0,0 m/s (0 Bft) S-SO 160 0 min 0 lux 1,2 C 7,8 C
03.06.2012 04:01 7,9 C 8,6 C 9,9 C 64 % 1011 hPa 0,0 l/m 0,0 m/s (0 Bft) S-SO 160 0 min 0 lux 1,5 C 7,9 C
03.06.2012 04:06 8,0 C 8,7 C 10,0 C 63 % 1011 hPa 0,0 l/m 0,0 m/s (0 Bft) S-SO 160 0 min 0 lux 1,4 C 8,0 C
03.06.2012 04:11 7,9 C 8,7 C 9,9 C 64 % 1011 hPa 0,0 l/m 0,0 m/s (0 Bft) S-SO 160 0 min 0 lux 1,5 C 7,9 C
03.06.2012 04:16 7,9 C 8,7 C 9,7 C 65 % 1011 hPa 0,0 l/m 0,0 m/s (0 Bft) S-SO 160 0 min 0 lux 1,7 C 7,9 C
03.06.2012 04:21 7,9 C 8,8 C 9,9 C 65 % 1011 hPa 0,0 l/m 0,0 m/s (0 Bft) S-SO22.5 160 0 min 0 lux 1,7 C 7,9 C
03.06.2012 04:26 7,9 C 8,8 C 9,8 C 65 % 1011 hPa 0,0 l/m 0,0 m/s (0 Bft) S-SO 160 0 min 0 lux 1,7 C 7,9 C
03.06.2012 04:31 7,9 C 8,8 C 9,8 C 66 % 1011 hPa 0,0 l/m 0,0 m/s (0 Bft) S-SO 160 0 min 0 lux 1,9 C 7,9 C
03.06.2012 04:36 7,9 C 8,8 C 9,8 C 67 % 1011 hPa 0,0 l/m 0,0 m/s (0 Bft) S22.5 170 0 min 0 lux 2,2 C 7,9 C
03.06.2012 04:41 8,0 C 8,8 C 9,8 C 66 % 1011 hPa 0,0 l/m 0,0 m/s (0 Bft) S-SO 160 0 min 0 lux 2,0 C 8,0 C
03.06.2012 04:46 8,1 C 8,8 C 9,6 C 66 % 1011 hPa 0,0 l/m 0,0 m/s (0 Bft) S-SO 160 0 min 0 lux 2,1 C 8,1 C
03.06.2012 04:51 8,1 C 8,8 C 9,9 C 65 % 1011 hPa 0,0 l/m 0,0 m/s (0 Bft) S-SO 160 0 min 0 lux 1,9 C 8,1 C
03.06.2012 04:56 8,1 C 8,8 C 9,6 C 65 % 1011 hPa 0,4 l/m 0,0 m/s (0 Bft) S-SO 160 0 min 0 lux 1,9 C 8,1 C
03.06.2012 05:01 8,1 C 8,9 C 9,8 C 65 % 1011 hPa 0,0 l/m 0,0 m/s (0 Bft) S-SO 160 0 min 0 lux 1,9 C 8,1 C
03.06.2012 05:06 8,1 C 8,9 C 9,9 C 65 % 1011 hPa 0,0 l/m 0,0 m/s (0 Bft) S-SO 160 0 min 0 lux 1,9 C 8,1 C
03.06.2012 05:11 8,1 C 9,0 C 9,6 C 65 % 1011 hPa 0,0 l/m 0,0 m/s (0 Bft) S-SO 160 0 min 0 lux 1,9 C 8,1 C
03.06.2012 05:16 8,1 C 9,0 C 9,8 C 66 % 1011 hPa 0,0 l/m 0,0 m/s (0 Bft) S-SO 160 0 min 41 lux 2,1 C 8,1 C
03.06.2012 05:21 8,0 C 9,0 C 9,7 C 67 % 1011 hPa 0,4 l/m 0,0 m/s (0 Bft) S-SO 160 0 min 52 lux 2,3 C 8,0 C
03.06.2012 05:26 8,0 C 9,0 C 9,7 C 67 % 1011 hPa 0,0 l/m 0,0 m/s (0 Bft) S-SO 160 0 min 78 lux 2,3 C 8,0 C
03.06.2012 05:31 8,0 C 9,0 C 9,6 C 67 % 1011 hPa 0,0 l/m 0,0 m/s (0 Bft) S-SO 160 0 min 110 lux 2,3 C 8,0 C
03.06.2012 05:36 8,1 C 9,0 C 9,6 C 67 % 1010 hPa 0,0 l/m 0,0 m/s (0 Bft) S-SO 160 0 min 134 lux 2,3 C 8,1 C
03.06.2012 05:41 8,2 C 9,0 C 9,9 C 68 % 1010 hPa 0,0 l/m 0,0 m/s (0 Bft) S-SO 160 0 min 296 lux 2,7 C 8,2 C
03.06.2012 05:46 8,2 C 9,0 C 9,6 C 68 % 1010 hPa 0,0 l/m 0,0 m/s (0 Bft) S-SO 160 0 min 349 lux 2,7 C 8,2 C
03.06.2012 05:51 8,2 C 8,9 C 9,4 C 68 % 1010 hPa 0,0 l/m 0,0 m/s (0 Bft) S-SO22.5 165 0 min 339 lux 2,7 C 8,2 C
03.06.2012 05:56 8,2 C 8,9 C 9,5 C 68 % 1010 hPa 0,0 l/m 0,0 m/s (0 Bft) S67.5 190 0 min 587 lux 2,7 C 8,2 C
03.06.2012 06:01 8,2 C 8,9 C 9,7 C 68 % 1010 hPa 0,0 l/m 0,0 m/s (0 Bft) S-SO45 160 0 min 842 lux 2,7 C 8,2 C
03.06.2012 06:06 8,1 C 8,9 C 9,8 C 71 % 1010 hPa 0,0 l/m 0,0 m/s (0 Bft) SO22.5 125 0 min 842 lux 3,2 C 8,1 C
03.06.2012 06:11 8,2 C 8,9 C 9,8 C 71 % 1010 hPa 0,0 l/m 0,0 m/s (0 Bft) SO22.5 125 0 min 976 lux 3,3 C 8,2 C
03.06.2012 06:16 8,3 C 9,0 C 10,0 C 71 % 1010 hPa 0,0 l/m 0,0 m/s (0 Bft) O-SO22.5 120 0 min 1,26 klux 3,4 C 8,3 C
03.06.2012 06:21 8,5 C 9,1 C 9,7 C 71 % 1010 hPa 0,0 l/m 0,0 m/s (0 Bft) SO22.5 130 0 min 1,40 klux 3,5 C 8,5 C
03.06.2012 06:26 8,6 C 9,1 C 10,0 C 71 % 1010 hPa 0,0 l/m 0,0 m/s (0 Bft) SO 125 0 min 1,23 klux 3,6 C 8,6 C
03.06.2012 06:32 8,6 C 9,2 C 10,1 C 70 % 1010 hPa 0,0 l/m 0,0 m/s (0 Bft) O-SO 115 0 min 1,75 klux 3,4 C 8,6 C
03.06.2012 06:37 8,7 C 9,3 C 10,2 C 70 % 1010 hPa 0,0 l/m 0,0 m/s (0 Bft) O-SO 115 0 min 2,40 klux 3,5 C 8,7 C
03.06.2012 06:42 8,9 C 9,4 C 10,3 C 70 % 1010 hPa 0,0 l/m 0,0 m/s (0 Bft) O-SO 115 0 min 2,29 klux 3,7 C 8,9 C
03.06.2012 06:47 8,9 C 9,5 C 10,3 C 70 % 1010 hPa 0,0 l/m 0,0 m/s (0 Bft) O-SO 120 0 min 1,68 klux 3,7 C 8,9 C
03.06.2012 06:52 8,9 C 9,5 C 10,2 C 70 % 1010 hPa 0,0 l/m 0,0 m/s (0 Bft) O-SO 120 0 min 1,58 klux 3,7 C 8,9 C
03.06.2012 06:57 8,9 C 9,5 C 10,2 C 71 % 1010 hPa 0,0 l/m 0,0 m/s (0 Bft) SO22.5 130 0 min 1,44 klux 3,9 C 8,9 C
03.06.2012 07:02 8,8 C 9,5 C 10,0 C 71 % 1010 hPa 0,0 l/m 0,0 m/s (0 Bft) O67.5 100 0 min 1,60 klux 3,8 C 8,8 C
03.06.2012 07:07 8,8 C 9,5 C 10,0 C 71 % 1010 hPa 0,0 l/m 0,1 m/s (0 Bft) O22.5 80 0 min 1,71 klux 3,8 C 8,8 C
03.06.2012 07:12 8,8 C 9,6 C 9,6 C 72 % 1010 hPa 0,0 l/m 0,0 m/s (0 Bft) O22.5 80 0 min 1,82 klux 4,0 C 8,8 C
03.06.2012 07:17 8,7 C 9,5 C 9,9 C 72 % 1010 hPa 0,0 l/m 0,3 m/s (1 Bft) O-SO22.5 110 0 min 1,47 klux 3,9 C 8,7 C
03.06.2012 07:22 8,7 C 9,5 C 9,7 C 72 % 1010 hPa 0,0 l/m 0,1 m/s (0 Bft) O-SO45 110 0 min 1,36 klux 3,9 C 8,7 C
03.06.2012 07:27 8,5 C 9,5 C 9,6 C 74 % 1010 hPa 0,4 l/m 3,1 m/s (2 Bft) O-SO67.5 115 0 min 1,47 klux 4,1 C 5,3 C
03.06.2012 07:32 8,5 C 9,4 C 9,5 C 73 % 1010 hPa 0,0 l/m 0,0 m/s (0 Bft) SO22.5 130 0 min 1,23 klux 3,9 C 8,5 C
03.06.2012 07:37 8,5 C 9,4 C 9,4 C 74 % 1010 hPa 0,0 l/m 0,0 m/s (0 Bft) SO22.5 130 0 min 3,40 klux 4,1 C 8,5 C
03.06.2012 07:42 8,5 C 9,4 C 9,6 C 75 % 1010 hPa 0,0 l/m 0,1 m/s (0 Bft) O45 95 0 min 3,99 klux 4,3 C 8,5 C
03.06.2012 07:47 8,6 C 9,5 C 9,6 C 76 % 1010 hPa 0,0 l/m 0,1 m/s (0 Bft) O-SO22.5 105 0 min 2,49 klux 4,6 C 8,6 C
03.06.2012 07:52 8,6 C 9,5 C 9,3 C 76 % 1010 hPa 0,0 l/m 0,1 m/s (0 Bft) O-SO22.5 105 0 min 4,62 klux 4,6 C 8,6 C
03.06.2012 07:57 8,6 C 9,5 C 9,3 C 77 % 1010 hPa 0,0 l/m 0,3 m/s (0 Bft) SO67.5 125 0 min 5,20 klux 4,8 C 8,6 C
03.06.2012 08:02 8,6 C 9,5 C 9,3 C 77 % 1010 hPa 0,0 l/m 3,2 m/s (2 Bft) O-SO45 115 0 min 3,36 klux 4,8 C 5,2 C
03.06.2012 08:07 8,6 C 9,5 C 9,4 C 77 % 1010 hPa 0,0 l/m 3,8 m/s (3 Bft) SO45 130 0 min 7,00 klux 4,8 C 4,0 C
03.06.2012 08:12 8,6 C 9,5 C 9,8 C 77 % 1009 hPa 0,0 l/m 0,1 m/s (0 Bft) O-SO67.5 110 0 min 6,61 klux 4,8 C 8,6 C
03.06.2012 08:16 8,9 C 9,6 C 9,6 C 77 % 1009 hPa 0,0 l/m 0,1 m/s (0 Bft) O-SO45 115 0 min 4,03 klux 5,1 C 8,9 C
03.06.2012 08:21 8,9 C 9,6 C 9,9 C 76 % 1009 hPa 0,0 l/m 0,0 m/s (0 Bft) O-SO 120 0 min 4,39 klux 4,9 C 8,9 C
03.06.2012 08:26 9,0 C 9,6 C 10,1 C 75 % 1010 hPa 0,0 l/m 0,0 m/s (0 Bft) SO 125 0 min 6,30 klux 4,8 C 9,0 C
03.06.2012 08:31 9,1 C 9,7 C 9,7 C 75 % 1010 hPa 0,0 l/m 0,0 m/s (0 Bft) SO 125 0 min 6,89 klux 4,9 C 9,1 C
03.06.2012 08:37 9,3 C 9,8 C 10,3 C 75 % 1009 hPa 0,0 l/m 0,0 m/s (0 Bft) SO22.5 125 0 min 7,54 klux 5,1 C 9,3 C
03.06.2012 08:42 9,3 C 9,9 C 10,0 C 75 % 1009 hPa 0,0 l/m 0,0 m/s (0 Bft) O22.5 100 0 min 5,33 klux 5,1 C 9,3 C
03.06.2012 08:47 9,3 C 10,0 C 10,0 C 75 % 1009 hPa 0,0 l/m 0,0 m/s (0 Bft) O-SO45 115 0 min 5,08 klux 5,1 C 9,3 C
03.06.2012 08:51 9,1 C 10,0 C 9,3 C 75 % 1009 hPa 0,0 l/m 3,7 m/s (3 Bft) SO67.5 135 0 min 2,89 klux 4,9 C 4,8 C
03.06.2012 08:56 8,9 C 9,9 C 9,6 C 77 % 1009 hPa 0,0 l/m 0,1 m/s (0 Bft) O22.5 100 0 min 1,68 klux 5,1 C 8,9 C
03.06.2012 09:01 8,9 C 9,9 C 10,1 C 77 % 1010 hPa 0,0 l/m 0,0 m/s (0 Bft) O22.5 85 0 min 3,65 klux 5,1 C 8,9 C
03.06.2012 09:06 8,9 C 9,9 C 9,4 C 77 % 1010 hPa 1,1 l/m 0,0 m/s (0 Bft) O-NO 70 0 min 5,70 klux 5,1 C 8,9 C
03.06.2012 09:12 8,8 C 9,8 C 9,2 C 78 % 1009 hPa 0,0 l/m 0,1 m/s (0 Bft) O-SO45 115 0 min 4,07 klux 5,2 C 8,8 C
03.06.2012 09:17 8,7 C 9,8 C 9,3 C 78 % 1009 hPa 0,4 l/m 0,0 m/s (0 Bft) SO67.5 140 0 min 3,01 klux 5,1 C 8,7 C
03.06.2012 09:22 8,6 C 9,7 C 9,1 C 80 % 1009 hPa 0,0 l/m 0,1 m/s (0 Bft) O-SO45 115 0 min 3,45 klux 5,3 C 8,6 C
03.06.2012 09:27 8,5 C 9,7 C 9,2 C 81 % 1009 hPa 0,0 l/m 0,1 m/s (0 Bft) SO67.5 135 0 min 3,83 klux 5,4 C 8,5 C
03.06.2012 09:32 8,5 C 9,6 C 9,1 C 81 % 1009 hPa 0,0 l/m 3,9 m/s (3 Bft) SO67.5 135 0 min 4,26 klux 5,4 C 3,8 C
03.06.2012 09:37 8,5 C 9,6 C 9,2 C 81 % 1009 hPa 0,0 l/m 3,1 m/s (2 Bft) O-SO45 120 0 min 5,25 klux 5,4 C 5,2 C
03.06.2012 09:42 8,7 C 9,6 C 9,5 C 81 % 1009 hPa 0,0 l/m 0,2 m/s (0 Bft) O-SO67.5 110 0 min 8,26 klux 5,6 C 8,7 C
03.06.2012 09:47 9,0 C 9,7 C 9,6 C 80 % 1009 hPa 0,0 l/m 0,0 m/s (0 Bft) O-SO45 115 0 min 9,9 klux 5,7 C 9,0 C
03.06.2012 09:52 9,1 C 9,7 C 9,7 C 80 % 1008 hPa 0,0 l/m 0,1 m/s (0 Bft) O-SO67.5 120 0 min 11,1 klux 5,8 C 9,1 C
03.06.2012 09:57 9,3 C 9,9 C 9,8 C 80 % 1008 hPa 0,0 l/m 0,1 m/s (0 Bft) O-SO67.5 110 0 min 12,2 klux 6,0 C 9,3 C
03.06.2012 10:02 9,7 C 10,1 C 10,2 C 80 % 1008 hPa 0,0 l/m 3,3 m/s (2 Bft) O-SO67.5 115 0 min 15,8 klux 6,4 C 6,2 C
03.06.2012 10:07 10,0 C 10,3 C 10,3 C 78 % 1008 hPa 0,0 l/m 0,1 m/s (0 Bft) O-SO67.5 120 0 min 15,7 klux 6,3 C 10,0 C
03.06.2012 10:12 10,2 C 10,3 C 10,3 C 78 % 1008 hPa 0,0 l/m 0,1 m/s (0 Bft) O-SO67.5 115 0 min 14,7 klux 6,5 C 10,2 C
03.06.2012 10:17 10,4 C 10,6 C 10,3 C 77 % 1008 hPa 0,0 l/m 0,1 m/s (0 Bft) SO67.5 135 0 min 16,6 klux 6,5 C 10,4 C
03.06.2012 10:22 10,4 C 10,7 C 10,5 C 77 % 1007 hPa 0,0 l/m 0,2 m/s (0 Bft) SO45 145 0 min 14,8 klux 6,5 C 10,4 C
03.06.2012 10:27 10,4 C 10,8 C 10,5 C 77 % 1007 hPa 0,0 l/m 0,1 m/s (0 Bft) SO45 130 0 min 13,7 klux 6,5 C 10,4 C
03.06.2012 10:32 10,4 C 10,8 C 10,5 C 77 % 1007 hPa 0,0 l/m 0,1 m/s (0 Bft) SO22.5 125 0 min 13,0 klux 6,5 C 10,4 C
03.06.2012 10:37 10,7 C 11,0 C 10,9 C 77 % 1007 hPa 0,0 l/m 0,1 m/s (0 Bft) SO67.5 125 0 min 18,4 klux 6,8 C 10,7 C
03.06.2012 10:42 10,8 C 11,1 C 10,9 C 77 % 1007 hPa 0,0 l/m 0,1 m/s (0 Bft) SO67.5 125 0 min 18,1 klux 6,9 C 10,8 C
03.06.2012 10:46 11,2 C 11,2 C 11,3 C 76 % 1007 hPa 0,0 l/m 0,1 m/s (0 Bft) O-SO 105 0 min 18,6 klux 7,1 C 11,2 C
03.06.2012 10:51 11,6 C 11,4 C 11,4 C 75 % 1007 hPa 0,0 l/m 0,3 m/s (1 Bft) O22.5 95 0 min 18,5 klux 7,3 C 11,6 C
03.06.2012 10:56 11,6 C 11,5 C 11,4 C 75 % 1007 hPa 0,0 l/m 0,1 m/s (0 Bft) O67.5 95 0 min 17,1 klux 7,3 C 11,6 C
03.06.2012 11:01 11,7 C 11,5 C 11,5 C 75 % 1007 hPa 0,0 l/m 0,1 m/s (0 Bft) O22.5 95 0 min 16,8 klux 7,4 C 11,7 C
03.06.2012 11:06 11,6 C 11,6 C 11,3 C 74 % 1007 hPa 0,0 l/m 0,0 m/s (0 Bft) O45 90 0 min 15,6 klux 7,1 C 11,6 C
03.06.2012 11:11 11,5 C 11,6 C 11,4 C 74 % 1007 hPa 0,4 l/m 0,1 m/s (0 Bft) O-SO22.5 105 0 min 12,5 klux 7,0 C 11,5 C
03.06.2012 11:16 11,4 C 11,6 C 10,9 C 74 % 1007 hPa 0,0 l/m 0,0 m/s (0 Bft) O45 100 0 min 14,2 klux 6,9 C 11,4 C
03.06.2012 11:21 11,6 C 11,7 C 11,3 C 74 % 1007 hPa 0,4 l/m 0,0 m/s (0 Bft) O-SO 105 0 min 7,70 klux 7,1 C 11,6 C
03.06.2012 11:26 11,5 C 11,7 C 10,9 C 74 % 1007 hPa 0,0 l/m 0,0 m/s (0 Bft) O-SO 105 0 min 10,5 klux 7,0 C 11,5 C
03.06.2012 11:31 11,6 C 11,8 C 11,6 C 74 % 1007 hPa 0,4 l/m 0,0 m/s (0 Bft) O-SO 105 0 min 16,6 klux 7,1 C 11,6 C
03.06.2012 11:36 11,9 C 11,9 C 11,6 C 74 % 1007 hPa 0,0 l/m 0,0 m/s (0 Bft) O-SO 105 0 min 17,3 klux 7,4 C 11,9 C
03.06.2012 11:41 11,9 C 12,0 C 11,6 C 74 % 1007 hPa 0,4 l/m 0,0 m/s (0 Bft) O-SO 105 0 min 12,3 klux 7,4 C 11,9 C
03.06.2012 11:46 11,8 C 12,1 C 11,6 C 73 % 1007 hPa 0,0 l/m 0,0 m/s (0 Bft) O-SO 105 0 min 11,3 klux 7,1 C 11,8 C
03.06.2012 11:51 11,9 C 12,1 C 11,5 C 73 % 1007 hPa 0,0 l/m 0,0 m/s (0 Bft) O-SO 105 0 min 15,8 klux 7,2 C 11,9 C
03.06.2012 11:56 11,9 C 12,2 C 11,4 C 73 % 1007 hPa 0,0 l/m 0,0 m/s (0 Bft) O-SO 105 0 min 15,5 klux 7,2 C 11,9 C
03.06.2012 12:01 12,0 C 12,3 C 11,6 C 73 % 1007 hPa 0,4 l/m 0,0 m/s (0 Bft) O-SO 105 0 min 16,7 klux 7,3 C 12,0 C
03.06.2012 12:06 12,1 C 12,4 C 11,9 C 73 % 1007 hPa 0,0 l/m 0,0 m/s (0 Bft) O-SO 105 0 min 16,9 klux 7,4 C 12,1 C
03.06.2012 12:11 12,3 C 12,5 C 11,6 C 73 % 1007 hPa 0,0 l/m 0,0 m/s (0 Bft) O-SO 105 0 min 13,7 klux 7,6 C 12,3 C
03.06.2012 12:16 12,4 C 12,5 C 11,8 C 73 % 1007 hPa 0,0 l/m 0,0 m/s (0 Bft) O-SO 120 0 min 12,5 klux 7,7 C 12,4 C
03.06.2012 12:21 12,2 C 12,5 C 11,8 C 73 % 1007 hPa 0,0 l/m 0,0 m/s (0 Bft) O-SO 120 0 min 11,2 klux 7,5 C 12,2 C
03.06.2012 12:26 12,3 C 12,5 C 11,9 C 73 % 1007 hPa 0,0 l/m 0,0 m/s (0 Bft) O-SO 120 0 min 18,6 klux 7,6 C 12,3 C
03.06.2012 12:31 12,5 C 12,6 C 11,6 C 73 % 1006 hPa 0,0 l/m 0,0 m/s (0 Bft) O-SO 120 0 min 21,6 klux 7,8 C 12,5 C
03.06.2012 12:36 13,1 C 12,9 C 12,3 C 72 % 1006 hPa 0,0 l/m 0,0 m/s (0 Bft) O-SO 120 0 min 24,4 klux 8,2 C 13,1 C
03.06.2012 12:41 13,2 C 13,0 C 12,4 C 72 % 1006 hPa 0,0 l/m 0,0 m/s (0 Bft) O-SO 120 0 min 18,8 klux 8,3 C 13,2 C
03.06.2012 12:46 13,2 C 13,2 C 12,4 C 72 % 1006 hPa 0,0 l/m 0,2 m/s (0 Bft) O-SO22.5 120 0 min 19,0 klux 8,3 C 13,2 C
03.06.2012 12:51 13,2 C 13,2 C 12,3 C 71 % 1006 hPa 0,0 l/m 0,0 m/s (0 Bft) O-SO 110 0 min 14,9 klux 8,1 C 13,2 C
03.06.2012 12:56 12,9 C 13,2 C 12,4 C 72 % 1006 hPa 0,0 l/m 0,0 m/s (0 Bft) O-SO 110 0 min 11,8 klux 8,0 C 12,9 C
03.06.2012 13:01 12,5 C 13,1 C 12,1 C 73 % 1006 hPa 0,0 l/m 0,0 m/s (0 Bft) O22.5 95 0 min 11,2 klux 7,8 C 12,5 C
03.06.2012 13:06 12,3 C 13,1 C 12,0 C 73 % 1006 hPa 0,0 l/m 0,0 m/s (0 Bft) O-SO45 115 0 min 11,0 klux 7,6 C 12,3 C
03.06.2012 13:11 12,2 C 13,0 C 12,2 C 74 % 1006 hPa 0,0 l/m 0,1 m/s (0 Bft) O-SO 105 0 min 11,9 klux 7,7 C 12,2 C
03.06.2012 13:16 12,2 C 13,0 C 12,3 C 74 % 1006 hPa 0,0 l/m 0,0 m/s (0 Bft) O22.5 95 0 min 13,8 klux 7,7 C 12,2 C
03.06.2012 13:21 12,2 C 13,0 C 12,4 C 75 % 1006 hPa 0,0 l/m 0,0 m/s (0 Bft) O 95 0 min 13,5 klux 7,9 C 12,2 C
03.06.2012 13:26 12,5 C 13,0 C 12,5 C 74 % 1006 hPa 0,0 l/m 0,0 m/s (0 Bft) O 95 0 min 11,7 klux 8,0 C 12,5 C
03.06.2012 13:31 12,4 C 13,0 C 12,0 C 74 % 1006 hPa 0,0 l/m 0,0 m/s (0 Bft) O 95 0 min 10,9 klux 7,9 C 12,4 C
03.06.2012 13:36 12,7 C 13,0 C 12,2 C 74 % 1006 hPa 0,0 l/m 0,0 m/s (0 Bft) O 95 0 min 18,2 klux 8,2 C 12,7 C
03.06.2012 13:41 13,1 C 13,2 C 12,6 C 74 % 1006 hPa 0,0 l/m 0,0 m/s (0 Bft) O 90 0 min 26,2 klux 8,6 C 13,1 C
03.06.2012 13:46 14,1 C 13,3 C 12,6 C 73 % 1006 hPa 0,0 l/m 0,0 m/s (0 Bft) O 90 0 min 24,4 klux 9,3 C 14,1 C
03.06.2012 13:51 14,1 C 13,6 C 13,1 C 72 % 1006 hPa 0,0 l/m 0,0 m/s (0 Bft) O 95 0 min 19,9 klux 9,1 C 14,1 C
03.06.2012 13:56 14,0 C 13,7 C 12,2 C 71 % 1006 hPa 0,0 l/m 0,0 m/s (0 Bft) O 95 0 min 18,7 klux 8,8 C 14,0 C
03.06.2012 14:01 13,9 C 13,7 C 12,7 C 72 % 1006 hPa 0,0 l/m 0,0 m/s (0 Bft) O 95 0 min 16,0 klux 8,9 C 13,9 C
03.06.2012 14:07 13,9 C 13,7 C 12,5 C 72 % 1006 hPa 0,4 l/m 0,0 m/s (0 Bft) O 95 0 min 19,9 klux 8,9 C 13,9 C
03.06.2012 14:12 14,1 C 13,9 C 13,1 C 72 % 1005 hPa 0,0 l/m 0,0 m/s (0 Bft) O 95 0 min 20,4 klux 9,1 C 14,1 C
03.06.2012 14:17 14,1 C 14,0 C 13,1 C 71 % 1005 hPa 0,4 l/m 0,0 m/s (0 Bft) O 95 0 min 17,3 klux 8,9 C 14,1 C
03.06.2012 14:22 14,0 C 14,0 C 13,3 C 71 % 1005 hPa 0,0 l/m 0,0 m/s (0 Bft) O 95 0 min 18,3 klux 8,8 C 14,0 C
03.06.2012 14:27 14,0 C 14,0 C 13,3 C 71 % 1005 hPa 0,0 l/m 0,0 m/s (0 Bft) O 95 0 min 21,7 klux 8,8 C 14,0 C
03.06.2012 14:32 14,2 C 14,1 C 13,0 C 72 % 1005 hPa 0,0 l/m 0,0 m/s (0 Bft) O 95 0 min 19,2 klux 9,2 C 14,2 C
03.06.2012 14:37 14,5 C 14,2 C 13,4 C 72 % 1005 hPa 0,0 l/m 0,0 m/s (0 Bft) O 95 0 min 20,0 klux 9,5 C 14,5 C
03.06.2012 14:42 14,6 C 14,3 C 13,7 C 71 % 1005 hPa 0,0 l/m 0,0 m/s (0 Bft) O 95 0 min 21,7 klux 9,4 C 14,6 C
03.06.2012 14:47 14,7 C 14,3 C 14,2 C 71 % 1005 hPa 0,4 l/m 0,0 m/s (0 Bft) O 95 0 min 34,7 klux 9,5 C 14,7 C
03.06.2012 14:52 15,5 C 14,7 C 14,2 C 71 % 1005 hPa 0,0 l/m 0,0 m/s (0 Bft) O 95 0 min 28,8 klux 10,3 C 15,5 C
03.06.2012 14:57 15,4 C 14,8 C 13,6 C 70 % 1005 hPa 0,0 l/m 0,0 m/s (0 Bft) O 95 0 min 22,2 klux 10,0 C 15,4 C
03.06.2012 15:02 15,3 C 14,8 C 13,8 C 70 % 1005 hPa 0,0 l/m 0,0 m/s (0 Bft) O-SO 115 0 min 17,9 klux 9,9 C 15,3 C
03.06.2012 15:07 14,9 C 14,8 C 13,8 C 71 % 1005 hPa 0,0 l/m 0,0 m/s (0 Bft) SO 125 0 min 14,1 klux 9,7 C 14,9 C
03.06.2012 15:12 14,7 C 14,7 C 13,8 C 71 % 1005 hPa 0,0 l/m 0,0 m/s (0 Bft) SO 125 0 min 14,7 klux 9,5 C 14,7 C
03.06.2012 15:17 14,8 C 14,7 C 13,9 C 71 % 1005 hPa 0,0 l/m 0,0 m/s (0 Bft) SO 125 0 min 16,6 klux 9,6 C 14,8 C
03.06.2012 15:22 14,9 C 14,7 C 13,9 C 71 % 1005 hPa 0,0 l/m 0,0 m/s (0 Bft) SO 125 0 min 14,6 klux 9,7 C 14,9 C
03.06.2012 15:27 14,8 C 14,6 C 13,9 C 71 % 1005 hPa 0,0 l/m 0,0 m/s (0 Bft) SO 125 0 min 13,1 klux 9,6 C 14,8 C
03.06.2012 15:32 14,8 C 14,6 C 14,0 C 71 % 1005 hPa 0,0 l/m 0,3 m/s (1 Bft) S67.5 175 0 min 14,4 klux 9,6 C 14,8 C
03.06.2012 15:37 14,7 C 14,6 C 13,6 C 71 % 1005 hPa 0,0 l/m 0,0 m/s (0 Bft) W-SW 250 0 min 14,9 klux 9,5 C 14,7 C
03.06.2012 15:42 14,9 C 14,7 C 13,7 C 72 % 1005 hPa 0,4 l/m 0,0 m/s (0 Bft) W-SW 250 0 min 19,4 klux 9,9 C 14,9 C
03.06.2012 15:47 15,3 C 14,7 C 13,6 C 71 % 1005 hPa 0,0 l/m 0,0 m/s (0 Bft) W-SW 250 0 min 20,8 klux 10,1 C 15,3 C
03.06.2012 15:52 15,4 C 14,9 C 14,0 C 71 % 1005 hPa 0,0 l/m 0,3 m/s (0 Bft) SW22.5 230 0 min 19,8 klux 10,2 C 15,4 C
03.06.2012 15:57 15,2 C 14,9 C 14,4 C 72 % 1005 hPa 0,0 l/m 0,0 m/s (0 Bft) SW 230 0 min 17,8 klux 10,2 C 15,2 C
03.06.2012 16:02 14,8 C 14,9 C 14,1 C 74 % 1005 hPa 0,0 l/m 2,0 m/s (2 Bft) W45 260 0 min 13,9 klux 10,2 C 14,3 C
03.06.2012 16:07 14,6 C 14,8 C 14,0 C 74 % 1005 hPa 0,4 l/m 1,8 m/s (2 Bft) W 270 0 min 14,6 klux 10,0 C 14,6 C
03.06.2012 16:12 14,6 C 14,8 C 14,3 C 75 % 1005 hPa 0,0 l/m 0,1 m/s (0 Bft) W22.5 260 0 min 19,6 klux 10,2 C 14,6 C
03.06.2012 16:17 14,9 C 15,0 C 14,5 C 77 % 1005 hPa 0,4 l/m 1,5 m/s (1 Bft) W-SW 240 0 min 23,3 klux 10,9 C 14,9 C
03.06.2012 16:22 15,0 C 15,0 C 14,7 C 76 % 1005 hPa 0,0 l/m 2,2 m/s (2 Bft) W45 270 0 min 22,5 klux 10,8 C 14,2 C
03.06.2012 16:27 15,1 C 15,2 C 14,8 C 77 % 1005 hPa 0,0 l/m 2,1 m/s (2 Bft) W-SW22.5 255 0 min 23,8 klux 11,1 C 14,5 C
03.06.2012 16:32 15,3 C 15,2 C 14,7 C 77 % 1005 hPa 0,0 l/m 1,8 m/s (2 Bft) W45 265 0 min 15,7 klux 11,3 C 15,3 C
03.06.2012 16:37 15,2 C 15,2 C 14,7 C 76 % 1005 hPa 0,0 l/m 2,0 m/s (2 Bft) W-SW22.5 255 0 min 10,1 klux 11,0 C 14,7 C
03.06.2012 16:42 14,9 C 15,2 C 14,3 C 77 % 1005 hPa 0,4 l/m 0,3 m/s (0 Bft) W-SW 245 0 min 6,44 klux 10,9 C 14,9 C
03.06.2012 16:47 14,5 C 15,1 C 14,3 C 78 % 1005 hPa 0,0 l/m 2,3 m/s (2 Bft) W-SW22.5 255 0 min 6,45 klux 10,7 C 13,4 C
03.06.2012 16:52 14,4 C 15,0 C 14,1 C 80 % 1005 hPa 0,0 l/m 2,0 m/s (2 Bft) W-SW45 255 0 min 7,41 klux 11,0 C 13,9 C
03.06.2012 16:57 14,3 C 14,9 C 14,1 C 80 % 1006 hPa 0,0 l/m 2,8 m/s (2 Bft) W-SW45 255 0 min 6,13 klux 10,9 C 12,3 C
03.06.2012 17:02 14,1 C 14,7 C 14,1 C 81 % 1006 hPa 0,0 l/m 2,2 m/s (2 Bft) W-SW45 240 0 min 5,80 klux 10,9 C 13,2 C
03.06.2012 17:07 14,1 C 14,7 C 14,0 C 81 % 1006 hPa 0,0 l/m 2,6 m/s (2 Bft) W22.5 260 0 min 5,24 klux 10,9 C 12,4 C
03.06.2012 17:11 14,2 C 14,6 C 13,8 C 82 % 1006 hPa 0,0 l/m 6,1 m/s (4 Bft) NW45 315 0 min 5,44 klux 11,2 C 8,3 C
03.06.2012 17:16 14,2 C 14,5 C 13,6 C 82 % 1006 hPa 0,0 l/m 7,3 m/s (4 Bft) NW22.5 315 0 min 3,56 klux 11,2 C 7,3 C
03.06.2012 17:21 14,1 C 14,5 C 13,6 C 82 % 1006 hPa 0,0 l/m 4,2 m/s (3 Bft) NW45 305 0 min 4,10 klux 11,1 C 10,1 C
03.06.2012 17:26 14,0 C 14,5 C 13,6 C 82 % 1006 hPa 0,0 l/m 6,5 m/s (4 Bft) NW22.5 310 0 min 4,71 klux 11,0 C 7,6 C
03.06.2012 17:31 13,9 C 14,3 C 13,4 C 83 % 1006 hPa 0,0 l/m 5,8 m/s (4 Bft) W-NW22.5 295 0 min 4,72 klux 11,1 C 8,1 C
03.06.2012 17:36 13,8 C 14,4 C 13,3 C 83 % 1006 hPa 0,0 l/m 7,1 m/s (4 Bft) NW22.5 310 0 min 6,36 klux 11,0 C 6,9 C
03.06.2012 17:41 13,8 C 14,3 C 13,2 C 83 % 1006 hPa 0,0 l/m 8,4 m/s (5 Bft) NW22.5 305 0 min 6,35 klux 11,0 C 5,9 C
03.06.2012 17:46 13,8 C 14,2 C 13,3 C 83 % 1006 hPa 0,0 l/m 11,5 m/s (6 Bft) W-NW45 300 0 min 6,82 klux 11,0 C 4,4 C
03.06.2012 17:51 13,8 C 14,2 C 13,4 C 83 % 1006 hPa 0,0 l/m 6,4 m/s (4 Bft) NW22.5 305 0 min 5,22 klux 11,0 C 7,4 C
03.06.2012 17:56 13,7 C 14,2 C 13,4 C 83 % 1006 hPa 0,0 l/m 4,8 m/s (3 Bft) W-NW45 295 0 min 5,11 klux 10,9 C 8,9 C
03.06.2012 18:01 13,7 C 14,1 C 13,4 C 83 % 1006 hPa 0,0 l/m 6,8 m/s (4 Bft) W-NW45 295 0 min 4,95 klux 10,9 C 6,9 C
03.06.2012 18:06 13,7 C 14,0 C 13,3 C 83 % 1006 hPa 0,0 l/m 4,2 m/s (3 Bft) W45 280 0 min 6,54 klux 10,9 C 9,5 C
03.06.2012 18:11 13,6 C 14,1 C 13,4 C 83 % 1006 hPa 0,0 l/m 7,1 m/s (4 Bft) NW45 305 0 min 13,5 klux 10,8 C 6,6 C
03.06.2012 18:16 13,7 C 14,0 C 13,4 C 83 % 1006 hPa 0,0 l/m 8,1 m/s (5 Bft) W-NW45 300 0 min 12,0 klux 10,9 C 6,0 C
03.06.2012 18:21 13,8 C 14,0 C 13,3 C 83 % 1006 hPa 0,0 l/m 8,3 m/s (5 Bft) NW22.5 310 0 min 6,17 klux 11,0 C 6,0 C
03.06.2012 18:26 13,6 C 14,0 C 13,2 C 82 % 1007 hPa 0,0 l/m 7,6 m/s (4 Bft) NW22.5 310 0 min 6,86 klux 10,6 C 6,2 C
03.06.2012 18:31 13,5 C 13,9 C 13,2 C 82 % 1007 hPa 0,0 l/m 4,7 m/s (3 Bft) W-NW45 295 0 min 7,67 klux 10,5 C 8,8 C
03.06.2012 18:36 13,5 C 13,9 C 13,4 C 83 % 1007 hPa 0,0 l/m 7,4 m/s (4 Bft) W-NW45 295 0 min 11,3 klux 10,7 C 6,2 C
03.06.2012 18:41 13,7 C 13,9 C 13,4 C 83 % 1007 hPa 0,0 l/m 7,4 m/s (4 Bft) W-NW45 290 0 min 13,7 klux 10,9 C 6,5 C
03.06.2012 18:47 13,8 C 13,9 C 13,5 C 82 % 1007 hPa 0,0 l/m 8,3 m/s (5 Bft) W-NW45 295 0 min 10,3 klux 10,8 C 6,0 C
03.06.2012 18:52 13,8 C 13,9 C 13,3 C 82 % 1007 hPa 0,0 l/m 8,0 m/s (4 Bft) W-NW45 300 0 min 6,30 klux 10,8 C 6,2 C
03.06.2012 18:57 13,6 C 13,9 C 13,2 C 81 % 1007 hPa 0,0 l/m 8,1 m/s (5 Bft) NW45 305 0 min 4,71 klux 10,4 C 5,9 C
03.06.2012 19:02 13,4 C 13,9 C 13,2 C 81 % 1007 hPa 0,0 l/m 6,0 m/s (4 Bft) W-NW45 295 0 min 4,06 klux 10,2 C 7,3 C
03.06.2012 19:06 13,3 C 13,8 C 13,2 C 82 % 1007 hPa 0,0 l/m 6,1 m/s (4 Bft) W-NW45 285 0 min 6,57 klux 10,3 C 7,0 C
03.06.2012 19:11 13,2 C 13,8 C 13,2 C 82 % 1007 hPa 0,0 l/m 4,4 m/s (3 Bft) W45 275 0 min 5,97 klux 10,2 C 8,7 C
03.06.2012 19:16 13,1 C 13,7 C 13,1 C 82 % 1007 hPa 0,0 l/m 5,0 m/s (3 Bft) W-NW45 285 0 min 3,80 klux 10,1 C 7,9 C
03.06.2012 19:21 13,1 C 13,6 C 13,0 C 83 % 1007 hPa 0,0 l/m 3,9 m/s (3 Bft) W45 275 0 min 2,68 klux 10,3 C 9,2 C
03.06.2012 19:26 12,9 C 13,6 C 13,0 C 84 % 1007 hPa 0,0 l/m 6,3 m/s (4 Bft) W45 280 0 min 2,92 klux 10,3 C 6,4 C
03.06.2012 19:31 12,8 C 13,5 C 13,0 C 84 % 1007 hPa 0,0 l/m 7,4 m/s (4 Bft) NW45 310 0 min 3,54 klux 10,2 C 5,3 C
03.06.2012 19:36 12,7 C 13,4 C 12,8 C 85 % 1007 hPa 0,0 l/m 4,3 m/s (3 Bft) W-NW45 295 0 min 4,59 klux 10,2 C 8,2 C
03.06.2012 19:41 12,7 C 13,3 C 12,9 C 85 % 1008 hPa 0,0 l/m 4,8 m/s (3 Bft) W-NW45 285 0 min 4,26 klux 10,2 C 7,7 C
03.06.2012 19:46 12,7 C 13,3 C 12,7 C 85 % 1008 hPa 0,0 l/m 7,8 m/s (4 Bft) W-NW45 295 0 min 2,86 klux 10,2 C 4,8 C
03.06.2012 19:51 12,5 C 13,2 C 12,7 C 85 % 1008 hPa 0,0 l/m 6,4 m/s (4 Bft) W-NW45 295 0 min 2,53 klux 10,0 C 5,7 C
03.06.2012 19:56 12,6 C 13,1 C 12,7 C 85 % 1008 hPa 0,0 l/m 6,7 m/s (4 Bft) W-NW22.5 295 0 min 2,37 klux 10,1 C 5,6 C
03.06.2012 20:01 12,6 C 13,1 C 12,6 C 85 % 1008 hPa 0,0 l/m 5,3 m/s (3 Bft) W45 280 0 min 2,30 klux 10,1 C 7,0 C
03.06.2012 20:06 12,4 C 13,0 C 12,5 C 85 % 1008 hPa 0,0 l/m 5,4 m/s (3 Bft) W-NW45 285 0 min 2,45 klux 9,9 C 6,5 C
03.06.2012 20:11 12,4 C 13,0 C 12,4 C 85 % 1008 hPa 0,0 l/m 7,0 m/s (4 Bft) W-NW67.5 295 0 min 2,21 klux 9,9 C 5,0 C
03.06.2012 20:16 12,4 C 13,0 C 12,5 C 85 % 1008 hPa 0,0 l/m 7,5 m/s (4 Bft) W-NW45 285 0 min 2,15 klux 9,9 C 4,6 C
03.06.2012 20:22 12,3 C 12,9 C 12,3 C 85 % 1008 hPa 0,0 l/m 7,6 m/s (4 Bft) W-NW22.5 290 0 min 1,82 klux 9,9 C 4,4 C
03.06.2012 20:27 12,3 C 12,8 C 12,3 C 84 % 1008 hPa 0,0 l/m 6,9 m/s (4 Bft) W-NW45 290 0 min 1,61 klux 9,7 C 5,0 C
03.06.2012 20:32 12,3 C 12,8 C 12,4 C 84 % 1008 hPa 0,0 l/m 5,5 m/s (3 Bft) W45 280 0 min 2,28 klux 9,7 C 6,3 C
03.06.2012 20:37 12,3 C 12,8 C 12,4 C 84 % 1008 hPa 0,0 l/m 5,7 m/s (4 Bft) W-NW45 285 0 min 2,20 klux 9,7 C 6,1 C
03.06.2012 20:42 12,2 C 12,7 C 12,3 C 84 % 1008 hPa 0,0 l/m 7,7 m/s (4 Bft) W-NW45 295 0 min 1,87 klux 9,6 C 4,2 C
03.06.2012 20:47 12,1 C 12,6 C 12,1 C 84 % 1008 hPa 0,0 l/m 7,2 m/s (4 Bft) W-NW45 300 0 min 1,17 klux 9,5 C 4,4 C
03.06.2012 20:52 12,0 C 12,6 C 12,1 C 84 % 1008 hPa 0,0 l/m 7,8 m/s (4 Bft) W-NW45 295 0 min 1,01 klux 9,4 C 3,9 C
03.06.2012 20:57 12,0 C 12,6 C 12,0 C 84 % 1008 hPa 0,0 l/m 6,0 m/s (4 Bft) W-NW45 295 0 min 842 lux 9,4 C 5,4 C
03.06.2012 21:02 12,0 C 12,5 C 12,0 C 83 % 1008 hPa 0,0 l/m 6,0 m/s (4 Bft) NW45 305 0 min 739 lux 9,2 C 5,4 C
03.06.2012 21:07 12,0 C 12,5 C 12,0 C 83 % 1008 hPa 0,0 l/m 7,9 m/s (4 Bft) W-NW22.5 295 0 min 544 lux 9,2 C 3,8 C
03.06.2012 21:12 11,9 C 12,5 C 11,9 C 83 % 1008 hPa 0,0 l/m 8,2 m/s (5 Bft) W-NW22.5 290 0 min 458 lux 9,1 C 3,4 C
03.06.2012 21:17 11,9 C 12,3 C 11,8 C 83 % 1008 hPa 0,0 l/m 8,3 m/s (5 Bft) W-NW45 295 0 min 390 lux 9,1 C 3,4 C
03.06.2012 21:22 11,8 C 12,3 C 11,8 C 82 % 1008 hPa 0,0 l/m 8,1 m/s (5 Bft) W-NW45 295 0 min 224 lux 8,8 C 3,3 C
03.06.2012 21:27 11,8 C 12,3 C 11,9 C 82 % 1009 hPa 0,0 l/m 8,6 m/s (5 Bft) W-NW45 290 0 min 156 lux 8,8 C 3,0 C
03.06.2012 21:32 11,7 C 12,2 C 11,7 C 82 % 1009 hPa 0,0 l/m 6,9 m/s (4 Bft) W-NW45 285 0 min 105 lux 8,7 C 4,2 C
03.06.2012 21:37 11,7 C 12,2 C 11,8 C 82 % 1009 hPa 0,0 l/m 5,5 m/s (3 Bft) W-NW45 285 0 min 136 lux 8,7 C 5,5 C
03.06.2012 21:42 11,7 C 12,2 C 11,8 C 82 % 1009 hPa 0,0 l/m 5,6 m/s (4 Bft) W45 280 0 min 100 lux 8,7 C 5,4 C
03.06.2012 21:47 11,6 C 12,1 C 11,7 C 82 % 1009 hPa 0,0 l/m 6,5 m/s (4 Bft) W-NW45 290 0 min 52 lux 8,6 C 4,4 C
03.06.2012 21:52 11,6 C 12,1 C 11,7 C 82 % 1009 hPa 0,0 l/m 6,5 m/s (4 Bft) W-NW45 290 0 min 25 lux 8,6 C 4,4 C
03.06.2012 21:57 11,6 C 12,0 C 11,7 C 82 % 1009 hPa 0,0 l/m 5,7 m/s (4 Bft) W45 280 0 min 25 lux 8,6 C 5,2 C
03.06.2012 22:02 11,5 C 12,0 C 11,6 C 82 % 1009 hPa 0,0 l/m 7,0 m/s (4 Bft) W-NW22.5 295 0 min 14 lux 8,5 C 3,8 C
03.06.2012 22:07 11,5 C 12,0 C 11,5 C 82 % 1009 hPa 0,0 l/m 5,6 m/s (4 Bft) NW45 305 0 min 9 lux 8,5 C 5,2 C
03.06.2012 22:12 11,4 C 11,9 C 11,6 C 82 % 1009 hPa 0,0 l/m 7,2 m/s (4 Bft) W-NW22.5 290 0 min 6 lux 8,4 C 3,5 C
03.06.2012 22:17 11,4 C 11,9 C 11,5 C 82 % 1009 hPa 0,0 l/m 4,5 m/s (3 Bft) W-NW22.5 290 0 min 1 lux 8,4 C 6,4 C
03.06.2012 22:22 11,3 C 11,9 C 11,5 C 83 % 1009 hPa 0,0 l/m 4,9 m/s (3 Bft) W-NW45 290 0 min 1 lux 8,5 C 5,8 C
03.06.2012 22:27 11,3 C 11,8 C 11,5 C 83 % 1009 hPa 0,0 l/m 4,8 m/s (3 Bft) W-NW45 290 0 min 0 lux 8,5 C 5,8 C
03.06.2012 22:32 11,2 C 11,8 C 11,5 C 83 % 1009 hPa 0,0 l/m 5,1 m/s (3 Bft) W45 275 0 min 0 lux 8,4 C 5,4 C
03.06.2012 22:37 11,1 C 11,7 C 11,4 C 83 % 1009 hPa 0,0 l/m 4,0 m/s (3 Bft) W-NW45 295 0 min 0 lux 8,3 C 6,7 C
03.06.2012 22:42 11,1 C 11,7 C 11,3 C 83 % 1009 hPa 0,0 l/m 7,2 m/s (4 Bft) W-NW45 290 0 min 0 lux 8,3 C 3,1 C
03.06.2012 22:47 11,1 C 11,6 C 11,2 C 83 % 1009 hPa 0,0 l/m 5,4 m/s (3 Bft) W45 280 0 min 0 lux 8,3 C 4,8 C
03.06.2012 22:52 11,1 C 11,6 C 11,4 C 83 % 1009 hPa 0,0 l/m 7,1 m/s (4 Bft) W-NW45 295 0 min 0 lux 8,3 C 3,2 C
03.06.2012 22:57 11,0 C 11,6 C 11,2 C 83 % 1009 hPa 0,0 l/m 4,8 m/s (3 Bft) W-NW45 285 0 min 0 lux 8,2 C 5,5 C
03.06.2012 23:02 11,0 C 11,5 C 11,3 C 82 % 1010 hPa 0,0 l/m 4,1 m/s (3 Bft) W-NW45 285 0 min 0 lux 8,0 C 6,4 C
03.06.2012 23:07 11,0 C 11,5 C 11,2 C 82 % 1010 hPa 0,0 l/m 5,5 m/s (3 Bft) W45 280 0 min 0 lux 8,0 C 4,7 C
03.06.2012 23:12 11,0 C 11,5 C 11,1 C 82 % 1010 hPa 0,0 l/m 3,3 m/s (2 Bft) W45 260 0 min 0 lux 8,0 C 7,8 C
03.06.2012 23:17 10,9 C 11,5 C 11,3 C 83 % 1010 hPa 0,0 l/m 5,3 m/s (3 Bft) W45 280 0 min 0 lux 8,1 C 4,8 C
03.06.2012 23:22 10,9 C 11,5 C 11,2 C 83 % 1010 hPa 0,0 l/m 3,9 m/s (3 Bft) W-NW22.5 285 0 min 0 lux 8,1 C 6,7 C
03.06.2012 23:27 10,8 C 11,4 C 11,2 C 83 % 1010 hPa 0,0 l/m 4,0 m/s (3 Bft) W-NW45 285 0 min 0 lux 8,0 C 6,4 C
03.06.2012 23:32 10,8 C 11,4 C 11,1 C 83 % 1010 hPa 0,0 l/m 3,6 m/s (3 Bft) W45 280 0 min 0 lux 8,0 C 7,0 C
03.06.2012 23:37 10,8 C 11,4 C 11,1 C 83 % 1010 hPa 0,0 l/m 3,0 m/s (2 Bft) W45 270 0 min 0 lux 8,0 C 8,0 C
03.06.2012 23:42 10,7 C 11,3 C 11,1 C 83 % 1010 hPa 0,0 l/m 4,9 m/s (3 Bft) W45 275 0 min 0 lux 7,9 C 4,9 C
03.06.2012 23:47 10,7 C 11,3 C 11,1 C 83 % 1010 hPa 0,0 l/m 3,6 m/s (3 Bft) W45 275 0 min 0 lux 7,9 C 6,9 C
03.06.2012 23:51 10,7 C 11,3 C 11,1 C 82 % 1010 hPa 0,0 l/m 1,9 m/s (2 Bft) W-SW22.5 255 0 min 0 lux 7,8 C 10,4 C
03.06.2012 23:56 10,7 C 11,3 C 11,2 C 82 % 1010 hPa 0,0 l/m 2,9 m/s (2 Bft) W45 275 0 min 0 lux 7,8 C 8,0 C
_ Min-Zeit 03:06 03:16 03:06 00:02 14:12 - 00:02 - - - - 02:07 21:27
Minimum _ 7,1 C 8,1 C 8,2 C 54 % 1005 hPa - 0,0 m/s (0 Bft) - - - - 0,2 C 3,0 C
_ Max-Zeit 14:52 16:27 16:27 19:36 00:02 09:06 17:46 - - 00:02 14:47 16:32 14:52
Maximum _ 15,5 C 15,2 C 14,8 C 85 % 1014 hPa 1,1 l/m 11,5 m/s
W-NW (6 Bft)
- - 0 min 34,7 klux 11,3 C 15,5 C
Durchschnitt _ 10,9 C 11,5 C 11,3 C 74 % 1008 hPa #6,8 l/m 1,9 m/s (2 Bft) W-NW - #0 min. 6,29 klux 6,3 C 9,0 C